Wind_Speed
35 37 37 37 36 34 33 33 32 30 28 28 28 27 26 25 24 23 22 21 20 18 17 17 16 17 17 17 17 16 15 13 12 10 9 7 6 4 4 3 2 2 1 0 1 0 1 1 3 3 3 0 3 6 7 7 7 6 6 6 6 6 6 6 5 5 4 3 3 2 1 1 1 2 4 5 6 8 10 12 13 14 15 15 16
34 36 37 37 36 35 35 35 33 31 30 29 29 28 27 26 26 24 24 23 21 20 19 18 17 17 18 18 17 16 15 13 12 11 9 8 7 6 5 5 5 4 4 3 2 2 2 2 2 2 3 2 1 5 8 9 8 7 7 7 7 7 7 7 7 6 5 4 3 3 2 2 2 3 5 6 8 10 12 14 15 16 16 17 18
33 35 36 36 36 36 36 36 34 33 31 30 30 29 29 28 27 26 26 25 23 21 20 20 19 19 19 18 18 17 16 15 14 13 11 10 9 8 8 7 7 6 6 5 4 4 4 4 3 3 3 3 1 3 7 9 9 8 8 8 8 8 8 8 7 6 6 5 4 4 4 4 4 5 7 9 10 12 14 16 16 16 17 19 21
34 34 35 36 37 37 36 36 35 33 32 31 31 31 30 29 28 27 27 26 24 23 21 21 20 20 20 20 19 19 18 17 16 15 13 12 11 10 10 9 9 8 8 7 6 6 7 6 5 5 5 4 3 3 5 7 9 9 9 9 9 9 8 8 7 6 6 5 4 4 5 6 7 8 10 11 12 14 16 18 19 20 21 22 25
34 34 34 36 37 37 36 36 35 34 32 32 32 32 31 30 29 29 29 27 26 24 23 22 22 22 21 21 21 20 19 18 17 15 13 12 11 11 11 12 11 11 9 9 8 9 9 8 7 7 7 6 4 4 5 7 8 9 9 10 10 9 9 8 7 7 6 5 5 5 6 7 8 10 12 13 14 16 17 19 22 24 26 28 30
35 35 35 36 36 36 36 36 35 35 33 32 32 32 32 31 30 30 29 28 27 26 24 23 23 23 23 23 22 22 20 18 17 15 13 12 11 11 12 13 13 12 11 10 10 10 10 10 9 9 9 8 6 5 7 7 8 9 9 10 10 10 9 9 8 7 6 6 6 7 8 9 11 13 16 17 18 19 21 23 26 28 29 30 30
35 36 36 35 35 35 35 35 35 35 35 34 33 33 32 32 32 31 31 30 29 27 26 24 24 24 25 24 24 22 20 18 17 15 14 12 12 12 13 14 14 13 12 12 11 11 12 11 11 10 11 11 8 6 8 9 9 10 10 10 10 10 9 9 8 7 6 6 7 9 11 13 15 17 20 22 23 24 25 26 27 27 27 27 27
35 36 36 35 34 34 35 35 36 37 36 36 34 33 33 33 33 33 32 31 30 29 28 26 26 26 26 26 25 23 21 18 17 16 15 14 14 14 14 14 14 14 13 13 12 12 13 13 13 12 12 12 10 8 9 10 11 11 11 10 10 9 9 8 7 6 5 6 8 10 12 14 17 19 22 24 25 25 26 26 25 24 25 25 25
35 36 36 35 34 34 35 36 37 38 37 37 36 34 33 33 34 34 33 32 32 31 30 28 27 27 27 27 26 24 22 20 19 18 17 16 15 14 14 14 14 14 13 13 13 13 14 14 14 14 13 13 12 10 10 11 12 12 11 10 10 10 9 8 7 6 6 7 9 11 13 16 19 21 24 25 25 24 25 26 24 24 25 25 26
34 36 35 35 34 35 36 37 38 38 38 37 36 35 34 34 34 34 33 33 33 33 31 30 28 28 28 28 27 25 23 21 20 20 18 17 16 15 14 14 14 14 13 14 14 14 15 15 15 16 15 14 13 12 11 12 13 13 12 11 11 10 9 8 7 6 7 8 10 13 15 18 21 23 24 25 25 24 25 25 25 25 25 26 27
33 35 35 35 35 35 36 37 37 38 38 37 37 36 35 34 33 33 34 34 34 33 33 31 30 29 29 28 27 25 24 22 22 21 19 18 17 16 15 15 14 14 14 14 15 15 15 16 16 17 17 16 15 14 13 13 14 14 13 11 10 10 9 8 8 7 8 9 12 15 17 19 20 21 22 24 25 25 26 26 26 26 27 27 28
32 34 35 35 35 36 36 36 37 37 37 37 37 37 36 35 34 33 34 34 34 34 33 32 31 30 29 29 27 26 25 24 22 21 19 18 18 17 16 16 15 14 15 15 15 16 16 16 17 17 18 18 16 15 14 14 15 15 13 11 10 10 10 9 9 9 9 10 13 17 19 20 19 20 22 24 25 27 28 29 29 29 29 30 31
32 33 34 35 36 37 37 36 36 36 36 37 37 37 36 35 33 33 33 34 34 34 33 32 31 30 29 28 27 26 25 24 23 21 20 19 19 19 18 17 16 16 16 15 16 16 16 16 17 17 19 19 17 17 16 14 14 15 13 11 11 11 11 10 10 10 11 12 14 18 21 22 20 20 24 26 27 28 30 31 33 33 32 34 35
34 34 34 35 37 37 37 36 35 35 35 37 37 37 36 34 33 33 34 34 34 33 33 32 30 29 28 27 27 26 25 24 23 22 21 20 20 20 19 17 17 17 17 16 17 17 16 16 16 17 18 19 18 18 17 15 14 14 13 12 11 11 11 12 12 12 12 13 15 17 21 23 21 21 24 27 29 30 31 32 34 35 34 35 37
34 34 35 36 37 37 36 36 36 36 36 36 37 36 35 34 33 33 33 33 32 32 31 31 30 29 28 27 26 25 24 24 23 22 21 21 21 20 19 18 18 18 18 18 18 18 17 17 16 17 18 18 18 19 18 16 15 14 13 13 12 12 12 13 14 14 14 15 16 18 22 23 23 24 25 26 28 31 33 34 36 36 36 37 38
34 35 36 35 35 36 36 36 36 36 36 36 35 35 35 34 33 33 33 32 31 31 30 29 28 28 27 26 25 24 24 25 24 23 23 22 22 21 20 19 19 19 20 20 20 19 19 18 17 17 17 17 18 18 18 17 16 15 14 14 14 14 14 15 17 17 17 17 18 20 23 24 25 26 26 26 28 32 34 36 38 39 39 40 39
34 35 36 35 34 34 35 35 36 36 36 35 34 33 33 32 32 32 31 30 29 29 28 28 28 28 27 26 25 25 26 26 25 24 24 23 22 22 21 20 20 20 20 21 21 20 20 19 18 18 17 17 18 18 18 17 17 16 15 15 15 16 16 17 18 18 19 20 20 22 24 25 27 28 28 27 29 32 34 37 39 40 40 40 39
35 35 36 35 33 34 35 35 36 36 35 33 32 32 31 31 31 30 29 29 28 28 28 28 28 28 27 26 26 26 27 27 26 26 26 25 24 24 23 21 20 19 21 22 22 21 20 20 20 19 18 18 17 17 17 17 17 17 17 17 17 17 19 20 19 20 21 22 24 25 26 27 29 30 30 30 32 34 36 38 39 40 40 40 39
34 35 35 34 33 34 35 35 35 35 33 32 31 31 30 30 30 29 28 28 28 28 28 28 27 27 27 27 26 27 27 27 27 27 27 26 26 26 24 22 20 19 21 23 22 21 21 21 20 19 19 19 18 17 17 18 19 18 18 18 18 19 21 22 21 22 23 24 26 27 27 29 30 30 31 32 34 37 39 40 40 41 41 41 40
35 35 36 34 33 34 35 35 34 33 32 31 31 30 30 29 29 29 28 28 27 27 27 27 27 27 27 26 26 27 28 28 28 28 28 28 28 28 26 23 21 20 22 23 23 23 22 22 21 21 20 20 19 18 18 19 20 20 20 19 19 21 22 23 23 24 24 26 28 29 29 29 29 29 31 33 35 38 40 40 41 42 42 41 41
36 36 35 33 32 34 34 34 33 33 32 32 31 30 30 29 29 28 28 28 27 27 27 26 26 26 26 26 26 27 27 28 28 29 29 29 28 27 26 23 22 22 22 23 24 24 23 22 22 22 21 20 19 19 19 20 21 21 21 21 21 22 24 24 25 25 26 27 29 31 31 31 30 30 32 35 37 38 39 40 41 41 42 42 43
35 34 33 31 32 33 33 33 32 32 32 32 32 31 30 30 29 28 28 27 27 27 26 26 26 26 25 26 26 26 27 28 28 28 28 28 27 26 25 23 22 23 23 24 25 25 24 23 23 22 21 20 20 20 20 21 22 22 22 22 23 23 24 25 26 27 27 28 30 32 32 31 31 33 35 37 39 40 41 41 42 42 42 43 44
35 34 31 30 31 32 32 32 31 31 32 32 31 31 30 29 29 28 27 27 27 26 26 26 25 25 25 25 25 26 26 25 24 24 25 25 25 24 24 23 22 22 23 23 25 25 25 23 23 23 22 21 22 22 22 22 23 23 24 24 24 24 25 26 28 28 28 29 30 31 31 32 33 35 37 39 40 41 42 42 42 43 43 43 45
33 31 29 29 31 31 31 31 31 31 31 31 31 30 30 29 28 28 28 27 27 26 26 26 26 25 25 25 25 24 23 23 22 21 21 21 21 21 21 21 21 21 22 22 24 26 26 24 23 23 23 23 23 24 24 24 24 25 26 26 25 24 26 28 29 30 29 29 29 30 31 33 35 37 39 41 42 42 43 43 43 43 43 43 44
30 27 28 29 30 31 31 31 31 31 31 31 30 30 29 29 28 28 28 28 27 27 26 26 26 25 25 24 23 23 22 21 20 20 19 20 20 19 19 19 19 20 21 22 23 25 25 25 25 24 23 24 25 25 25 25 26 26 27 27 25 25 27 30 31 31 30 29 29 30 32 34 36 38 40 42 42 43 43 43 43 43 44 44 44
28 27 28 29 30 31 31 32 32 31 31 31 30 30 30 30 29 29 29 28 28 27 27 26 26 25 24 24 23 22 21 20 20 20 20 21 21 21 21 21 20 20 20 21 23 24 25 25 26 25 25 26 27 27 26 27 27 27 27 28 27 27 28 30 31 30 30 30 30 32 33 35 37 39 41 42 43 43 43 43 43 44 44 44 45
28 28 29 30 31 32 32 32 32 32 31 31 31 31 31 31 31 31 30 29 28 28 27 27 26 25 25 24 24 24 23 23 22 22 22 23 23 23 24 25 24 23 21 20 22 24 25 26 27 27 28 28 28 28 28 28 28 28 28 29 29 29 29 30 30 30 30 31 33 34 35 37 39 41 42 43 44 44 44 44 44 45 45 45 46
31 31 32 32 33 33 33 33 33 32 32 32 32 33 33 33 33 32 31 31 31 30 29 28 28 27 27 27 27 26 26 26 25 25 25 25 26 27 27 27 27 26 24 22 23 24 25 27 28 29 30 30 30 30 30 29 29 30 31 31 31 31 31 31 31 31 32 33 35 36 38 39 41 43 44 45 46 46 46 45 45 46 46 46 47
34 34 35 35 35 34 34 34 33 33 33 33 34 35 35 35 34 34 34 34 33 33 32 32 31 30 29 29 29 28 28 28 28 27 28 28 28 29 30 30 30 30 29 28 26 25 25 27 28 29 30 31 31 31 31 31 31 32 33 33 33 33 33 33 33 33 34 35 36 38 39 41 43 45 46 46 47 47 47 47 47 47 47 48 48
37 38 38 37 37 37 37 36 36 35 35 35 36 37 37 37 37 36 36 36 35 35 35 34 33 32 31 31 30 30 30 30 30 30 30 30 30 31 32 33 34 33 32 32 31 29 29 29 29 29 30 31 32 32 32 32 33 34 35 35 35 35 35 35 35 35 36 37 39 40 42 44 45 46 47 48 48 48 48 48 48 48 48 49 50
39 40 40 39 39 39 39 39 38 38 38 38 38 38 39 39 39 39 38 37 37 37 36 36 35 34 33 32 32 32 32 32 32 32 32 32 33 34 35 36 36 35 35 34 34 33 33 32 32 31 32 32 33 33 33 33 34 36 36 36 36 36 36 36 37 38 39 40 41 43 45 46 47 48 49 50 49 49 48 48 48 49 49 50 51
41 42 43 42 43 43 43 42 42 41 41 41 40 41 41 41 41 41 40 40 39 39 38 38 38 37 36 36 36 36 35 35 35 35 35 36 36 37 38 38 38 38 38 38 37 36 36 36 36 36 36 36 36 36 36 36 37 37 37 38 38 38 38 39 40 40 41 43 44 46 47 48 49 50 50 50 50 49 49 49 49 49 50 51 52
43 44 44 45 46 45 43 43 44 43 43 43 43 43 43 43 43 43 42 42 42 42 41 41 41 40 40 39 39 39 39 38 38 38 38 39 39 40 41 41 41 42 43 42 41 40 40 40 40 40 40 40 40 40 39 39 40 40 40 40 41 41 41 42 43 43 45 46 47 48 49 50 51 51 51 50 50 50 50 50 50 50 51 52 53
40 43 44 45 44 42 38 38 41 42 43 45 45 45 44 44 44 44 44 43 43 43 43 43 43 43 43 43 42 41 41 41 41 41 42 42 43 44 44 45 45 45 46 46 46 46 46 45 44 43 43 43 44 44 44 43 43 44 44 44 44 44 45 46 46 47 48 49 50 51 52 52 52 52 51 50 50 51 51 51 51 51 52 54 55
36 39 39 37 36 36 35 36 38 39 39 40 41 42 43 43 43 43 44 44 44 45 45 45 45 46 46 45 45 44 44 44 44 44 45 46 47 47 48 48 48 48 48 49 49 49 49 48 46 45 45 45 46 47 46 46 46 47 46 46 46 47 48 49 49 50 51 52 53 53 53 52 52 51 51 51 51 51 51 52 52 52 53 55 55
37 37 33 31 32 33 34 35 35 35 36 37 38 39 40 41 42 43 43 44 45 45 45 46 47 48 47 47 46 45 45 45 46 47 47 48 49 48 48 47 47 47 47 47 46 45 44 44 43 44 44 45 46 47 47 48 49 50 49 49 49 50 51 51 51 52 52 53 53 52 51 51 51 51 52 52 52 52 53 53 53 53 55 56 56
39 36 33 32 34 35 36 36 36 36 37 38 39 40 41 42 42 43 43 43 44 44 43 44 45 46 46 46 46 45 45 46 46 46 46 45 45 44 43 43 43 43 43 42 41 41 40 39 39 40 41 43 43 43 44 45 46 47 49 50 50 50 51 51 51 51 51 51 50 50 50 51 52 52 53 53 53 54 54 54 54 55 56 57 57
39 37 35 35 36 36 36 37 37 38 39 40 41 41 42 42 42 42 42 42 41 41 40 41 42 42 42 43 43 43 43 43 43 42 41 41 40 40 40 41 41 41 41 41 41 40 39 37 37 38 39 40 42 42 43 44 44 44 46 48 47 47 48 48 48 48 48 48 49 50 51 52 53 53 54 55 55 55 55 55 56 57 57 58 58
40 39 38 39 39 40 39 37 37 38 39 40 40 41 41 41 41 40 40 40 39 38 37 37 38 38 38 39 40 40 40 40 39 39 39 39 39 40 40 40 40 40 40 40 40 39 39 38 38 38 39 40 41 42 43 44 44 45 45 45 45 45 46 46 46 47 47 48 50 50 51 52 53 54 55 56 56 56 56 57 57 58 59 59 59
43 42 41 40 41 43 43 41 40 39 39 39 39 39 39 39 39 39 39 38 37 36 35 35 35 35 36 37 38 38 38 39 39 39 39 40 40 40 40 39 39 40 40 40 40 39 40 40 41 42 43 43 44 44 44 44 45 46 46 45 45 46 47 47 48 48 48 49 50 51 52 53 54 55 56 56 56 56 57 58 59 59 59 59 59
48 46 44 43 43 44 44 44 42 41 40 40 39 38 38 37 38 39 39 38 38 37 36 35 35 36 36 37 38 38 39 39 39 40 40 41 40 40 41 41 41 40 41 42 42 42 42 42 43 43 44 45 46 46 46 46 47 47 48 48 49 50 51 51 51 50 51 52 54 55 56 55 56 56 57 57 57 58 59 59 59 59 59 59 59
54 51 48 46 45 45 45 44 43 42 41 40 40 40 39 38 38 39 39 39 39 38 37 37 37 37 37 38 39 39 39 40 41 42 42 43 42 42 43 44 43 41 41 41 42 43 44 45 45 46 46 47 46 46 48 50 52 53 54 55 56 57 58 57 56 56 56 57 57 58 57 57 58 58 58 57 58 59 60 60 60 60 60 60 59
57 55 52 49 47 46 45 45 44 43 42 41 41 41 40 40 39 39 39 39 39 38 38 37 37 38 39 40 40 41 41 43 44 43 41 40 42 43 44 44 43 42 42 42 41 42 43 45 45 45 45 45 45 47 49 50 50 50 52 53 55 56 57 58 58 58 58 58 58 58 58 58 59 59 59 59 60 60 60 61 61 61 61 60 59
60 58 56 53 49 47 46 46 46 46 44 43 41 41 41 42 41 40 39 39 39 38 38 37 36 37 38 40 41 42 43 46 47 45 41 39 40 42 44 45 45 45 46 47 47 48 48 48 47 46 46 48 50 51 52 51 50 50 50 51 52 53 54 54 54 55 56 57 57 57 58 59 60 60 60 61 62 62 61 62 63 62 61 60 59
62 61 59 56 52 50 49 49 49 48 47 46 44 43 43 43 43 42 41 40 39 38 38 36 35 35 35 37 39 42 44 46 49 48 47 46 47 48 48 49 48 49 50 51 52 52 51 51 51 51 52 52 51 49 50 51 51 51 50 49 50 52 53 53 53 55 56 56 56 57 58 59 61 61 62 63 63 63 64 64 64 62 60 59 59
64 63 61 59 55 53 52 51 50 50 50 48 47 46 45 44 44 43 42 41 40 40 39 37 36 35 34 34 36 39 41 44 47 48 48 48 49 50 51 52 52 52 53 53 53 54 54 54 54 54 54 54 52 51 51 51 51 51 51 51 51 51 51 52 54 57 57 57 57 58 60 62 63 64 64 64 64 65 66 65 62 60 59 59 60
66 65 64 62 58 55 53 52 52 52 52 51 50 48 47 46 45 45 44 44 43 42 41 40 38 37 36 36 36 37 39 41 44 46 48 49 49 50 51 52 53 54 54 54 54 54 54 54 54 54 55 55 55 55 55 55 55 55 55 53 53 53 53 55 57 57 57 57 59 61 63 65 65 65 65 64 65 64 63 61 60 59 60 60 61
68 67 66 63 60 56 54 53 53 53 52 52 52 51 50 49 48 47 46 46 45 45 44 43 42 41 40 40 39 39 39 40 42 44 46 48 51 52 53 53 54 54 55 55 54 55 55 55 56 57 57 58 58 59 59 59 58 57 57 56 57 57 57 57 57 57 58 60 62 63 64 64 64 64 63 62 61 60 60 60 60 61 62 62 63
69 68 66 64 61 58 57 56 55 55 54 54 54 54 53 52 51 49 48 48 48 48 49 48 47 45 45 44 44 43 43 44 44 45 47 48 51 53 54 54 54 53 52 53 54 55 56 57 57 58 58 58 58 59 59 60 59 58 57 57 57 56 56 56 56 57 58 59 59 59 60 60 61 61 60 59 59 60 61 62 63 63 64 65 64
71 70 69 67 64 62 60 60 59 58 57 56 56 56 55 55 54 52 51 50 50 50 51 52 51 50 49 49 48 47 47 47 47 48 49 50 51 52 53 55 54 53 54 57 60 62 61 60 59 59 59 58 58 58 58 58 58 57 55 53 53 52 51 52 52 52 53 55 55 56 58 59 59 59 58 59 61 62 63 64 65 66 67 66 65
73 72 71 69 67 65 64 63 62 61 60 59 58 57 58 58 58 56 55 54 53 52 52 53 54 54 53 53 52 51 51 51 51 51 51 51 51 52 54 55 56 56 55 52 51 53 53 51 48 48 48 48 48 50 50 51 53 54 53 51 49 47 46 47 49 52 54 56 56 57 58 59 58 58 59 62 64 66 67 67 68 68 68 67 67
Wind_Direction
209 210 210 208 206 202 200 202 202 201 199 198 198 200 200 200 199 196 192 193 192 189 187 186 182 177 174 173 172 171 170 171 172 172 174 177 182 193 208 224 238 249 263 311 76 58 327 356 12 11 4 334 203 209 216 220 214 206 207 209 204 199 195 194 195 197 200 201 201 200 198 249 314 338 339 337 338 338 338 338 339 339 336 333 331
211 212 213 212 210 206 203 204 205 203 200 199 200 201 201 201 201 196 193 195 195 191 190 189 187 184 183 182 182 182 184 186 190 194 198 203 210 224 239 250 258 268 275 281 282 270 277 291 317 339 341 342 205 210 220 225 220 212 210 210 208 205 201 202 203 204 208 214 224 242 259 278 307 332 337 335 331 330 329 329 330 332 330 328 327
212 213 214 215 214 211 208 207 207 206 202 200 201 201 202 203 201 197 196 197 198 196 194 193 193 193 193 193 194 195 198 201 206 211 216 221 228 237 247 254 259 266 272 277 280 276 278 280 281 291 298 301 278 222 226 230 226 219 215 214 212 211 209 211 212 213 218 227 241 262 282 302 322 333 335 331 328 326 324 324 328 330 326 326 329
212 214 214 215 216 214 211 210 210 209 206 203 202 203 204 205 203 200 199 200 200 200 200 198 199 200 201 202 204 206 209 211 215 220 223 227 232 239 247 253 257 261 265 270 272 271 273 274 272 272 275 281 279 250 237 236 233 225 219 219 218 216 217 219 222 226 233 240 253 275 299 317 328 329 327 324 322 322 322 325 329 329 327 329 332
213 214 215 216 216 216 214 212 213 212 210 208 206 205 206 206 205 204 203 203 203 205 205 203 203 206 207 209 211 213 215 216 220 225 229 233 238 243 248 253 257 260 261 261 262 263 266 268 266 262 266 272 274 263 251 244 239 231 222 220 219 220 222 223 228 237 247 259 276 298 314 321 322 317 314 315 318 322 326 331 335 335 335 335 333
215 215 215 216 216 217 216 215 215 215 215 213 211 209 209 208 208 208 207 206 207 208 209 209 209 210 212 213 215 217 218 219 222 227 232 239 245 249 252 256 261 265 267 265 263 263 263 265 262 256 258 265 267 260 256 252 245 236 226 220 220 222 224 226 231 239 253 274 298 317 326 328 325 317 314 321 330 333 336 340 341 339 337 336 334
217 217 217 217 216 216 217 217 217 217 218 218 216 214 212 211 211 210 210 209 210 211 213 213 214 214 215 216 219 220 221 223 226 230 234 240 244 248 251 255 261 268 273 275 273 270 268 267 263 255 253 260 263 255 251 252 248 240 229 221 220 223 226 227 231 240 261 292 309 317 324 324 319 315 317 327 336 338 341 346 346 339 335 338 341
220 219 219 218 216 216 217 217 218 219 219 220 219 218 216 215 214 213 212 212 212 214 216 217 217 217 217 219 220 222 224 227 231 235 238 240 242 244 248 253 260 267 274 278 278 276 273 269 266 259 253 255 259 254 246 247 247 242 231 222 220 223 227 229 236 251 282 311 310 311 314 311 309 313 321 329 334 336 342 348 347 341 338 343 346
223 223 222 219 217 217 217 217 218 219 220 221 221 221 220 219 218 217 215 214 215 216 218 219 220 220 220 221 222 223 225 228 233 239 242 243 242 243 248 253 259 265 271 274 274 273 272 270 266 262 256 253 255 254 248 244 244 241 231 222 220 225 231 235 246 271 306 318 309 306 305 304 310 318 324 328 333 339 345 347 345 343 343 345 344
227 225 225 223 220 219 219 219 219 220 220 221 222 223 222 222 221 221 219 218 218 219 220 222 222 222 223 224 224 224 226 229 235 240 245 247 247 246 250 254 258 263 267 270 270 270 271 269 265 262 259 254 253 253 251 245 241 238 230 221 222 231 240 246 261 288 308 310 306 305 306 310 317 324 328 333 338 344 347 345 343 343 344 345 343
231 228 227 225 224 222 222 221 221 221 221 222 223 224 224 224 224 224 223 223 222 222 223 224 225 225 225 226 226 226 228 232 237 242 247 251 253 254 256 258 260 261 264 267 269 271 272 270 266 261 258 255 253 252 252 246 241 239 232 224 227 238 249 257 271 290 301 307 309 308 312 318 322 329 338 340 341 345 346 344 343 343 344 345 344
235 232 229 227 226 226 225 223 223 223 223 223 223 224 225 225 225 225 226 226 226 226 227 227 228 228 228 227 227 228 230 234 239 244 247 252 257 260 263 263 263 262 263 267 269 271 272 270 266 261 257 256 255 253 253 249 243 242 239 231 231 242 253 264 277 292 304 312 312 309 311 316 321 333 341 340 341 345 346 345 344 345 346 345 343
237 235 232 230 228 228 228 226 225 224 224 224 224 225 225 226 226 227 227 227 227 228 229 230 231 231 231 230 230 230 233 237 241 244 248 253 259 263 266 266 264 263 264 267 270 272 272 269 264 258 254 255 256 254 255 252 247 247 244 237 238 249 262 274 285 296 303 306 307 307 308 311 320 334 339 338 340 343 344 346 344 344 346 346 344
238 238 236 233 230 230 230 229 228 226 226 225 225 225 225 226 226 227 227 227 228 229 230 232 233 233 233 233 233 234 236 239 241 244 248 255 260 263 266 266 265 264 264 266 268 270 271 268 263 256 252 253 254 255 256 253 251 252 250 243 246 259 271 280 286 290 295 300 304 307 307 310 320 332 335 336 337 338 342 344 342 342 345 345 343
238 239 239 237 234 232 231 231 230 229 228 228 228 227 226 226 226 227 227 227 228 229 230 231 232 233 233 234 235 236 237 238 239 243 249 255 259 261 264 266 265 265 265 266 268 269 270 268 263 256 252 252 254 256 256 252 251 256 255 248 251 262 271 278 282 286 294 300 304 305 306 309 317 326 331 334 335 336 339 341 340 341 344 344 342
237 239 240 241 239 235 232 231 231 231 231 231 230 229 229 228 228 228 228 228 228 229 230 230 231 232 233 233 233 232 232 234 238 244 250 254 257 260 263 264 264 265 266 266 267 269 271 269 263 256 254 253 255 257 257 252 250 255 258 255 257 264 271 277 282 289 295 299 303 305 305 308 315 321 326 331 334 335 338 338 338 340 342 341 341
236 238 240 242 242 238 234 231 231 232 232 232 232 231 231 231 231 230 229 228 227 228 228 228 229 230 231 230 228 228 231 234 240 246 251 254 257 259 261 262 262 264 265 265 266 267 269 269 264 259 256 256 259 262 261 254 249 252 259 261 263 268 275 280 285 292 296 300 303 305 305 310 316 320 324 329 332 335 337 337 337 338 339 338 339
235 237 240 242 243 240 235 232 231 232 232 232 232 231 231 231 231 229 227 225 225 225 226 227 228 229 229 228 227 230 234 238 243 248 253 256 258 259 260 261 262 263 263 264 264 266 268 268 265 261 258 259 265 269 265 255 249 250 257 262 267 273 278 282 286 291 296 301 304 304 307 314 320 322 324 328 332 334 335 335 334 334 334 334 337
235 237 240 242 242 240 236 232 231 231 231 231 230 229 228 228 227 225 223 222 223 224 226 226 227 228 228 228 230 234 239 243 245 249 254 257 259 261 262 263 264 264 263 263 264 266 268 268 266 262 260 262 270 274 268 257 250 249 254 262 268 274 280 284 288 292 295 300 301 302 308 316 319 320 324 327 330 332 332 332 331 331 331 332 334
234 236 238 240 241 239 236 232 231 230 229 229 229 227 226 225 224 223 222 223 224 225 226 226 227 229 231 233 236 240 244 247 249 251 254 257 260 262 264 266 266 264 263 264 265 266 267 268 266 263 262 266 273 276 269 259 252 250 254 260 267 274 280 286 289 292 296 299 299 301 308 313 314 317 322 326 327 328 327 327 328 328 328 329 331
232 234 237 239 239 238 235 232 230 228 227 227 226 225 224 224 224 224 224 226 226 226 228 229 231 235 237 239 242 245 247 249 251 253 256 259 262 264 266 267 266 264 263 264 265 266 266 266 265 264 266 272 277 277 270 261 255 253 255 258 265 273 281 285 288 292 297 299 300 304 309 312 313 318 322 323 323 324 324 324 325 325 326 327 330
232 233 235 237 238 236 233 231 228 226 225 225 225 225 224 225 225 225 226 228 228 230 231 233 236 238 240 242 244 246 248 251 253 255 257 260 263 266 268 268 266 264 264 263 264 264 264 264 264 264 269 275 278 275 269 263 260 258 257 259 265 274 281 285 288 293 297 298 299 304 307 311 315 318 320 320 321 322 322 323 323 324 325 328 330
231 233 235 237 236 233 230 227 225 223 222 223 223 223 224 225 226 226 227 229 230 232 233 235 236 237 239 241 243 246 249 252 254 257 259 262 265 267 269 269 267 264 262 261 261 262 261 262 262 264 269 275 276 273 269 266 264 261 261 264 270 276 281 285 288 292 295 295 298 302 305 309 312 314 316 318 319 320 321 321 321 322 324 327 329
230 232 236 237 235 231 227 224 223 222 221 221 221 222 223 224 225 226 228 229 230 231 232 233 235 237 239 242 244 247 251 254 257 261 264 266 269 271 272 273 270 265 260 258 259 259 259 260 261 262 267 273 275 272 269 267 266 265 266 269 273 276 279 283 286 290 292 293 295 298 301 305 309 311 313 315 316 318 318 318 319 320 322 324 326
230 233 236 235 232 228 226 224 223 222 220 220 220 220 222 223 224 224 226 227 228 230 231 234 236 239 241 245 247 250 254 257 261 265 269 273 276 278 278 278 276 270 263 257 257 258 259 259 259 261 266 272 274 273 270 268 268 269 271 273 273 273 275 280 286 289 290 292 293 296 300 304 307 309 311 312 314 316 316 316 317 319 320 321 323
229 232 233 232 229 227 225 223 222 222 221 220 219 219 220 221 221 221 223 225 227 230 233 236 239 241 244 248 250 250 252 255 259 263 268 273 277 280 280 280 281 279 273 263 258 258 260 259 259 261 266 270 273 273 273 272 272 274 275 276 276 274 274 279 284 287 288 290 292 295 300 303 305 307 308 309 311 313 314 314 315 317 318 318 320
226 229 228 227 226 225 224 223 223 222 221 220 219 219 219 220 220 220 222 225 227 231 234 237 239 242 245 249 250 251 254 257 260 263 267 271 274 276 278 279 281 284 283 275 265 261 260 259 260 262 265 268 270 272 273 273 275 276 277 278 278 277 278 281 284 285 287 289 291 294 298 302 303 304 305 306 309 311 312 312 314 315 315 316 318
224 225 224 224 224 223 222 222 222 221 220 219 219 219 219 220 221 222 224 226 228 231 235 237 239 242 245 248 251 255 259 262 264 264 264 266 269 272 275 278 280 281 281 277 271 265 262 260 259 260 262 265 267 269 270 272 274 275 276 277 279 280 281 282 283 284 286 288 291 295 298 300 301 302 303 305 308 310 310 311 312 313 314 315 316
223 224 223 223 223 223 223 223 223 222 221 220 220 220 221 222 223 224 226 229 231 234 237 239 242 245 247 249 251 255 259 261 263 263 263 264 267 270 273 275 277 277 275 274 272 270 266 264 262 261 262 263 265 266 268 270 272 273 275 277 279 280 281 281 282 284 287 290 293 296 298 299 300 301 303 305 308 309 309 310 311 312 312 314 315
222 224 224 224 223 223 223 223 224 224 223 222 222 222 223 224 225 227 229 232 235 237 240 242 245 248 250 252 253 254 257 259 261 262 264 266 267 268 270 273 275 276 274 272 272 272 270 268 266 264 264 264 264 265 267 269 270 272 273 275 277 278 279 281 283 286 289 291 294 296 297 299 300 301 302 304 306 307 307 308 310 311 312 313 315
223 224 225 226 226 225 225 225 226 226 226 226 226 226 228 228 228 229 232 234 237 240 243 245 248 251 253 254 255 257 259 261 263 264 265 266 267 268 270 273 277 278 277 274 272 271 270 270 270 269 267 267 267 267 268 269 271 272 273 274 276 277 280 282 285 287 290 292 294 295 296 298 299 300 302 303 303 304 305 307 309 310 311 313 314
223 223 225 226 226 226 227 228 229 229 229 230 230 230 231 232 233 233 235 237 239 242 245 247 250 253 254 256 257 258 260 261 263 265 267 268 269 271 273 275 277 279 280 279 277 274 271 270 269 269 270 270 270 270 271 272 273 273 275 276 277 279 281 283 285 288 290 291 292 293 295 296 297 299 299 300 301 302 305 307 308 310 311 312 312
223 223 224 226 228 228 227 227 230 233 234 234 234 234 235 236 237 238 239 240 242 245 247 250 252 254 255 257 259 261 262 262 264 266 268 269 270 271 273 275 276 277 279 280 280 278 275 273 270 269 269 269 270 271 272 273 274 275 276 277 279 281 283 284 285 287 288 289 290 292 293 294 295 296 297 298 299 302 304 306 308 309 310 311 311
227 226 225 228 232 234 232 230 233 236 237 237 238 238 239 240 241 243 244 245 247 249 251 253 255 257 259 260 262 264 265 265 265 267 269 270 271 272 273 274 275 276 276 277 277 277 276 275 272 269 268 268 269 270 270 271 272 273 274 276 278 280 281 282 283 285 286 287 288 290 291 292 293 294 295 297 299 301 302 305 307 308 309 310 311
235 232 228 228 234 237 236 235 236 238 238 239 240 241 242 244 246 248 249 251 252 253 255 257 259 260 261 263 264 266 266 267 267 268 269 270 271 272 272 273 273 273 273 273 272 272 272 272 271 268 267 267 267 267 268 269 270 271 273 274 276 277 278 279 281 282 283 285 286 288 289 291 292 293 295 298 299 300 302 304 306 307 308 309 311
237 236 231 231 237 240 240 241 241 241 241 243 244 245 247 249 251 253 254 255 256 256 258 259 260 262 263 264 266 267 267 268 268 268 268 269 270 270 270 270 270 270 270 269 270 270 270 269 268 267 266 266 266 267 268 270 271 271 272 272 273 274 276 277 279 280 282 283 285 287 288 290 291 292 295 297 298 300 301 303 305 306 307 309 311
235 235 234 235 239 242 242 242 242 242 243 245 246 248 250 252 254 255 256 257 258 259 259 259 260 261 262 264 265 266 266 267 267 267 267 267 267 267 267 268 268 268 269 270 270 270 269 269 270 270 271 272 272 272 272 272 271 271 272 272 273 274 275 277 278 279 281 283 285 286 288 289 290 292 294 296 297 299 301 303 304 306 307 309 311
232 233 234 235 236 238 239 239 240 242 245 247 248 250 252 253 255 256 257 258 259 259 259 259 260 260 261 262 263 263 264 264 264 264 264 264 265 266 267 267 267 268 269 269 269 270 270 271 272 273 274 275 275 273 272 272 272 273 274 275 275 276 276 277 277 279 281 283 285 286 288 289 291 292 293 295 297 299 301 303 305 306 308 309 310
228 231 234 235 234 235 237 240 241 243 245 247 249 250 252 253 254 255 255 257 257 258 258 258 258 259 259 260 260 261 261 261 261 262 262 263 264 264 264 265 266 267 268 268 269 271 273 274 273 274 275 274 273 272 271 272 274 276 277 278 277 277 277 278 279 280 282 284 285 287 289 290 292 292 293 295 297 299 302 303 305 306 307 308 309
227 231 235 237 236 236 237 239 242 243 245 246 246 247 249 250 251 252 252 254 255 256 256 256 256 256 256 257 258 258 259 259 260 261 261 262 262 263 264 265 266 267 268 270 271 272 274 274 274 274 273 273 274 275 274 274 276 278 279 278 278 278 279 279 280 282 283 284 285 287 288 290 292 293 294 295 297 300 302 303 304 305 306 307 307
227 229 232 235 235 235 236 238 240 241 243 244 244 244 244 245 246 248 250 251 253 254 254 254 255 255 255 255 256 257 258 259 260 260 261 262 263 265 267 267 267 268 271 273 274 273 273 273 273 272 272 274 277 278 277 275 275 276 276 276 276 277 278 279 280 281 283 284 284 284 285 288 290 292 293 295 298 300 301 302 303 303 304 305 305
227 228 229 232 232 232 234 237 237 238 240 241 242 242 242 242 243 245 248 250 251 253 253 254 255 256 257 257 258 258 259 260 261 262 264 266 266 267 268 269 270 272 275 276 276 275 275 275 273 271 272 274 276 277 276 276 275 275 275 275 275 277 277 278 279 279 281 283 283 283 283 286 289 291 293 295 297 299 300 300 301 302 302 303 304
227 227 229 231 231 231 233 235 236 237 238 240 241 242 241 241 241 243 245 247 249 251 252 254 256 257 259 260 261 262 263 263 264 266 268 270 269 269 270 271 272 273 274 274 275 277 278 278 277 274 272 272 274 277 279 278 278 277 276 275 277 278 278 277 277 277 279 281 282 282 283 286 289 291 293 295 296 297 297 297 299 300 301 301 302
226 227 230 231 231 231 232 234 235 236 238 239 241 242 242 241 241 242 244 246 248 249 250 252 254 257 259 261 262 263 265 266 266 266 266 266 266 268 271 272 272 273 274 274 275 275 276 276 275 273 272 274 277 279 278 277 278 279 278 277 278 278 277 275 275 277 280 281 281 282 284 287 289 291 293 294 294 294 295 296 297 298 299 299 300
226 227 230 231 230 230 231 233 235 236 237 239 241 242 243 243 242 242 243 245 246 247 249 250 252 255 258 260 262 263 263 265 267 267 266 266 266 268 269 270 271 272 273 274 274 274 274 274 274 274 275 276 277 277 276 276 277 278 278 278 278 277 275 273 274 279 282 282 282 283 286 288 289 291 292 292 292 293 294 295 296 297 298 298 299
226 228 230 231 231 231 231 233 235 236 238 239 241 243 244 244 244 243 243 244 246 247 248 249 250 253 256 259 262 263 264 265 266 268 269 269 269 269 269 269 270 271 272 273 273 274 274 275 275 276 277 277 278 277 276 276 276 276 277 278 278 276 273 273 276 280 282 282 282 284 287 289 290 291 292 292 292 292 293 294 294 295 296 297 298
225 228 230 231 232 232 234 235 236 238 240 241 242 244 245 246 245 245 244 245 246 247 247 248 249 251 254 258 261 264 267 268 269 270 271 271 271 271 271 272 272 273 272 272 273 274 274 275 275 276 276 277 277 278 278 277 277 277 277 276 276 275 274 275 277 280 281 281 283 286 289 290 291 292 292 292 292 292 292 292 293 294 295 296 297
226 228 230 231 232 233 236 238 239 241 243 244 245 246 247 247 247 247 247 247 248 248 248 248 249 251 254 258 261 265 269 272 273 274 274 273 272 272 272 272 273 274 274 273 273 273 273 274 275 275 276 276 276 276 277 277 276 274 274 274 274 274 274 275 277 280 282 284 286 289 290 291 291 291 291 290 290 289 289 290 291 292 294 294 295
227 229 231 233 233 235 237 239 240 242 245 247 248 249 249 249 249 249 249 250 251 252 251 251 252 254 256 259 262 266 270 273 276 277 277 276 275 274 274 274 275 275 275 274 275 276 276 276 275 274 274 274 275 275 275 275 274 273 272 272 272 272 273 276 279 282 284 286 288 290 290 290 290 288 287 286 286 286 288 289 291 292 293 294 295
228 229 231 232 234 235 237 239 241 243 245 248 249 251 251 252 252 251 251 252 254 255 255 255 255 256 259 261 264 267 270 273 276 278 278 278 277 276 276 276 277 277 277 277 278 278 276 273 272 271 271 271 271 271 271 272 272 272 273 273 273 275 277 280 282 285 288 290 291 290 289 287 285 284 283 284 285 286 288 290 291 292 293 294 294
228 229 230 232 234 236 237 239 241 243 245 247 248 251 252 254 254 253 254 255 256 258 259 259 258 259 260 262 265 267 269 272 274 276 276 276 277 277 277 279 279 278 276 277 277 277 274 271 270 272 273 273 273 273 272 272 272 273 274 275 276 278 281 284 286 289 291 291 289 287 285 282 281 281 283 285 287 288 289 290 291 291 292 293 294
Height
5918 5920 5922 5924 5926 5928 5930 5932 5933 5935 5937 5939 5941 5942 5943 5945 5947 5948 5950 5952 5953 5954 5955 5957 5957 5958 5959 5960 5962 5963 5964 5965 5965 5966 5967 5967 5968 5968 5968 5968 5968 5969 5969 5969 5969 5969 5968 5968 5968 5968 5968 5968 5968 5968 5968 5968 5968 5969 5969 5969 5969 5969 5970 5970 5970 5970 5970 5971 5971 5971 5971 5971 5971 5971 5970 5970 5969 5968 5967 5966 5965 5964 5963 5961 5960
5917 5919 5921 5923 5925 5927 5928 5930 5931 5933 5935 5937 5939 5941 5942 5944 5945 5947 5949 5950 5952 5953 5954 5956 5957 5958 5959 5960 5961 5962 5963 5964 5965 5966 5966 5967 5967 5968 5968 5968 5968 5968 5969 5969 5969 5969 5969 5968 5968 5968 5968 5968 5968 5968 5968 5968 5968 5969 5969 5969 5969 5970 5970 5970 5970 5970 5971 5971 5971 5971 5971 5971 5971 5971 5970 5969 5969 5968 5967 5965 5964 5963 5961 5960 5958
5915 5917 5919 5921 5923 5925 5926 5928 5930 5932 5934 5935 5937 5939 5941 5942 5944 5946 5947 5949 5950 5952 5953 5955 5956 5957 5958 5959 5961 5962 5963 5963 5964 5965 5966 5966 5967 5967 5967 5967 5968 5968 5968 5968 5969 5969 5968 5968 5968 5968 5968 5968 5968 5968 5968 5967 5968 5969 5969 5969 5969 5970 5970 5970 5970 5971 5971 5971 5971 5971 5971 5971 5970 5970 5969 5969 5968 5967 5965 5964 5962 5961 5960 5958 5957
5913 5914 5917 5919 5921 5922 5925 5927 5928 5930 5932 5934 5935 5937 5938 5940 5942 5944 5945 5947 5949 5950 5952 5953 5955 5956 5957 5958 5959 5960 5961 5962 5963 5964 5965 5965 5966 5966 5966 5966 5967 5967 5967 5968 5968 5968 5968 5968 5968 5968 5968 5968 5968 5968 5968 5968 5968 5969 5969 5969 5969 5970 5970 5970 5970 5971 5971 5971 5971 5971 5970 5970 5970 5969 5968 5968 5966 5965 5964 5962 5960 5959 5958 5957 5956
5911 5913 5914 5916 5918 5920 5923 5925 5927 5929 5931 5932 5934 5935 5937 5939 5941 5942 5944 5945 5947 5949 5950 5952 5953 5954 5956 5957 5958 5959 5960 5961 5962 5963 5963 5964 5965 5965 5965 5965 5965 5966 5966 5967 5967 5967 5967 5967 5968 5968 5968 5968 5968 5968 5968 5968 5968 5968 5969 5969 5969 5969 5970 5970 5970 5970 5971 5971 5970 5970 5970 5970 5969 5968 5967 5966 5965 5964 5962 5960 5959 5957 5956 5954 5952
5909 5910 5912 5913 5916 5919 5921 5924 5926 5928 5930 5931 5932 5934 5935 5937 5939 5940 5942 5944 5945 5947 5948 5950 5951 5953 5954 5955 5956 5957 5958 5959 5960 5961 5962 5963 5963 5963 5963 5963 5963 5964 5964 5965 5966 5966 5966 5966 5967 5967 5967 5967 5968 5968 5967 5967 5967 5968 5968 5968 5969 5969 5969 5970 5970 5970 5970 5970 5970 5970 5969 5969 5968 5967 5965 5963 5963 5962 5960 5959 5957 5956 5954 5952 5949
5907 5908 5910 5911 5914 5917 5919 5922 5924 5926 5927 5929 5930 5932 5934 5935 5937 5938 5940 5941 5943 5945 5946 5948 5950 5951 5952 5953 5954 5955 5957 5958 5959 5960 5961 5961 5962 5962 5962 5962 5962 5962 5963 5963 5964 5964 5965 5965 5966 5966 5966 5967 5967 5967 5967 5966 5966 5967 5967 5968 5968 5969 5969 5970 5970 5970 5970 5970 5970 5969 5968 5967 5965 5964 5962 5961 5961 5960 5959 5958 5957 5954 5952 5950 5948
5905 5906 5908 5910 5912 5915 5917 5919 5921 5922 5924 5926 5928 5930 5932 5933 5935 5936 5938 5939 5941 5943 5944 5946 5947 5949 5950 5951 5953 5954 5955 5957 5957 5958 5959 5959 5960 5960 5960 5961 5961 5961 5961 5962 5962 5963 5963 5963 5964 5964 5965 5965 5966 5966 5966 5965 5966 5966 5967 5967 5968 5969 5969 5969 5969 5970 5970 5969 5969 5968 5967 5965 5964 5962 5962 5961 5960 5959 5958 5957 5956 5953 5951 5949 5947
5903 5905 5906 5908 5911 5912 5914 5916 5917 5919 5921 5923 5926 5928 5930 5931 5932 5934 5936 5937 5939 5940 5942 5943 5945 5947 5948 5950 5951 5953 5954 5955 5955 5956 5957 5957 5958 5959 5959 5959 5959 5960 5960 5960 5961 5961 5961 5961 5962 5962 5963 5964 5965 5965 5965 5964 5964 5965 5966 5967 5967 5968 5968 5968 5969 5969 5969 5968 5967 5966 5965 5964 5963 5962 5962 5960 5959 5958 5957 5955 5953 5952 5950 5948 5946
5901 5903 5905 5907 5909 5910 5911 5913 5914 5916 5919 5921 5923 5925 5927 5929 5930 5932 5934 5935 5936 5938 5940 5941 5943 5945 5946 5948 5949 5951 5952 5953 5953 5954 5954 5955 5956 5957 5957 5958 5958 5958 5959 5959 5959 5959 5959 5959 5960 5960 5961 5962 5963 5963 5964 5963 5963 5964 5965 5966 5966 5967 5967 5967 5968 5968 5968 5967 5966 5965 5964 5963 5962 5962 5961 5958 5957 5957 5956 5953 5951 5950 5948 5947 5945
5899 5901 5903 5905 5906 5907 5909 5910 5912 5914 5916 5918 5920 5922 5924 5926 5928 5930 5931 5933 5934 5936 5937 5939 5941 5942 5944 5946 5947 5949 5950 5951 5951 5952 5952 5953 5954 5955 5955 5956 5956 5957 5957 5957 5957 5957 5957 5957 5958 5958 5959 5960 5961 5962 5962 5962 5961 5962 5963 5965 5965 5966 5966 5966 5966 5966 5966 5966 5965 5963 5962 5961 5961 5960 5959 5957 5956 5955 5954 5952 5949 5948 5946 5944 5942
5896 5898 5900 5902 5904 5905 5906 5908 5909 5911 5913 5915 5917 5919 5921 5923 5925 5927 5929 5930 5932 5934 5935 5937 5938 5940 5942 5943 5945 5947 5948 5948 5949 5950 5951 5951 5952 5952 5953 5954 5954 5954 5955 5955 5955 5955 5955 5955 5956 5956 5957 5957 5958 5960 5960 5960 5960 5960 5962 5963 5964 5964 5964 5964 5965 5965 5965 5964 5963 5961 5959 5959 5959 5959 5957 5955 5954 5953 5952 5949 5947 5945 5943 5940 5938
5893 5895 5897 5899 5901 5902 5903 5905 5907 5909 5911 5913 5914 5916 5918 5920 5923 5924 5926 5927 5929 5931 5933 5934 5936 5937 5939 5941 5943 5944 5945 5946 5947 5948 5948 5949 5950 5950 5951 5951 5952 5952 5952 5953 5953 5953 5953 5953 5954 5954 5954 5955 5956 5957 5958 5958 5958 5958 5960 5962 5963 5963 5962 5962 5963 5963 5962 5962 5961 5959 5956 5956 5957 5957 5956 5953 5951 5950 5949 5946 5943 5941 5939 5936 5934
5890 5892 5894 5896 5898 5899 5901 5903 5905 5907 5908 5910 5911 5913 5915 5918 5920 5921 5923 5924 5927 5929 5931 5932 5934 5935 5937 5939 5940 5941 5943 5944 5945 5945 5946 5947 5947 5948 5949 5949 5950 5950 5950 5950 5951 5951 5951 5951 5952 5952 5952 5953 5954 5955 5956 5956 5956 5957 5958 5960 5961 5961 5960 5960 5960 5961 5960 5960 5959 5957 5954 5953 5953 5955 5954 5951 5948 5946 5945 5944 5941 5938 5937 5934 5931
5887 5889 5891 5893 5895 5897 5899 5901 5902 5904 5906 5907 5909 5911 5913 5915 5917 5918 5920 5922 5924 5926 5928 5929 5931 5933 5935 5936 5938 5939 5940 5941 5942 5943 5944 5945 5945 5946 5947 5947 5948 5948 5948 5948 5948 5949 5949 5949 5950 5950 5951 5951 5952 5953 5954 5955 5955 5955 5956 5958 5958 5959 5959 5958 5958 5958 5958 5958 5957 5955 5952 5950 5950 5951 5951 5949 5946 5943 5941 5940 5938 5936 5934 5932 5928
5884 5886 5888 5890 5892 5894 5897 5898 5900 5901 5903 5905 5907 5909 5911 5913 5914 5916 5918 5920 5922 5924 5925 5927 5929 5931 5932 5934 5935 5937 5938 5939 5940 5941 5941 5942 5943 5944 5944 5945 5945 5945 5945 5946 5946 5946 5947 5947 5947 5948 5949 5949 5950 5951 5952 5953 5953 5953 5954 5955 5956 5956 5956 5956 5956 5955 5955 5955 5954 5952 5950 5948 5948 5947 5948 5947 5944 5940 5938 5936 5933 5931 5929 5928 5926
5881 5884 5886 5887 5889 5892 5894 5895 5897 5898 5900 5903 5905 5907 5909 5910 5912 5913 5915 5918 5920 5921 5923 5925 5927 5928 5930 5932 5933 5935 5935 5936 5937 5938 5939 5940 5941 5942 5942 5943 5943 5943 5943 5943 5943 5944 5944 5945 5945 5946 5946 5947 5948 5949 5950 5951 5952 5952 5952 5953 5953 5954 5954 5953 5953 5953 5952 5951 5951 5949 5947 5946 5945 5944 5944 5943 5941 5937 5935 5932 5929 5927 5925 5924 5923
5879 5881 5883 5884 5886 5889 5891 5892 5894 5896 5898 5901 5903 5905 5906 5908 5909 5911 5913 5915 5917 5919 5920 5922 5924 5926 5928 5930 5931 5932 5932 5934 5935 5936 5936 5938 5938 5939 5940 5940 5941 5941 5941 5940 5941 5942 5942 5942 5943 5943 5944 5945 5946 5947 5948 5949 5950 5950 5950 5950 5951 5951 5951 5950 5950 5950 5949 5948 5947 5946 5944 5942 5941 5939 5939 5938 5936 5933 5931 5930 5927 5924 5922 5921 5919
5877 5879 5880 5882 5884 5886 5887 5889 5891 5893 5896 5898 5900 5902 5903 5905 5907 5909 5911 5913 5915 5916 5918 5920 5922 5924 5926 5927 5929 5930 5930 5931 5933 5934 5934 5935 5935 5936 5937 5938 5938 5939 5938 5937 5938 5939 5940 5940 5941 5941 5942 5942 5943 5945 5946 5947 5948 5948 5948 5948 5949 5948 5947 5947 5947 5946 5946 5945 5944 5942 5941 5940 5938 5936 5935 5933 5931 5929 5927 5926 5924 5921 5920 5918 5915
5874 5876 5877 5878 5881 5883 5885 5887 5889 5891 5894 5896 5897 5899 5901 5902 5904 5907 5909 5911 5913 5915 5917 5919 5920 5922 5923 5925 5926 5927 5928 5929 5930 5931 5931 5932 5932 5933 5934 5935 5936 5935 5935 5935 5935 5936 5937 5938 5938 5939 5939 5940 5941 5942 5943 5944 5945 5945 5946 5946 5946 5946 5945 5944 5944 5943 5943 5942 5940 5939 5939 5937 5936 5935 5933 5930 5929 5927 5926 5924 5921 5919 5916 5915 5913
5871 5872 5874 5876 5879 5881 5883 5885 5887 5889 5891 5893 5895 5896 5898 5900 5902 5905 5907 5909 5911 5913 5915 5917 5918 5920 5921 5923 5924 5925 5925 5926 5927 5928 5928 5929 5930 5930 5931 5932 5932 5932 5932 5932 5933 5933 5934 5935 5936 5936 5936 5937 5938 5939 5940 5941 5942 5943 5943 5944 5944 5943 5943 5942 5941 5940 5940 5938 5937 5936 5935 5934 5932 5931 5929 5927 5926 5924 5923 5922 5919 5917 5914 5911 5908
5868 5870 5872 5875 5877 5879 5881 5883 5885 5887 5888 5890 5892 5894 5896 5898 5900 5903 5905 5907 5909 5911 5912 5914 5916 5917 5919 5920 5921 5922 5923 5923 5924 5925 5926 5926 5927 5928 5928 5929 5929 5929 5930 5930 5930 5930 5931 5932 5933 5933 5933 5934 5934 5935 5937 5938 5939 5940 5940 5941 5941 5941 5940 5939 5938 5937 5937 5935 5934 5933 5931 5930 5928 5927 5926 5924 5922 5920 5918 5917 5915 5913 5911 5908 5903
5865 5868 5870 5873 5875 5877 5879 5880 5882 5884 5886 5888 5890 5892 5894 5896 5899 5901 5903 5905 5907 5908 5910 5912 5913 5915 5916 5917 5918 5919 5920 5920 5921 5922 5923 5924 5924 5925 5925 5926 5926 5926 5927 5927 5927 5927 5928 5929 5930 5930 5930 5930 5931 5931 5933 5934 5935 5936 5937 5937 5938 5938 5937 5935 5935 5934 5934 5933 5932 5930 5928 5927 5925 5924 5923 5921 5919 5917 5915 5913 5911 5909 5908 5905 5901
5863 5866 5869 5871 5873 5874 5876 5878 5880 5882 5884 5886 5888 5890 5893 5895 5897 5899 5901 5902 5904 5906 5908 5909 5911 5912 5914 5915 5916 5916 5917 5918 5919 5920 5920 5921 5922 5922 5923 5923 5923 5923 5924 5924 5924 5924 5925 5926 5926 5927 5927 5927 5927 5928 5929 5930 5931 5932 5933 5934 5935 5935 5933 5932 5931 5931 5931 5930 5929 5927 5926 5924 5922 5920 5919 5918 5917 5915 5913 5910 5908 5906 5904 5902 5899
5862 5865 5867 5868 5870 5872 5874 5876 5878 5880 5882 5884 5886 5888 5890 5893 5895 5897 5898 5900 5902 5904 5905 5907 5908 5910 5911 5912 5913 5914 5915 5915 5916 5917 5918 5918 5919 5919 5920 5920 5920 5920 5921 5921 5921 5921 5922 5922 5923 5923 5923 5924 5924 5924 5925 5927 5927 5928 5929 5931 5932 5932 5930 5928 5928 5928 5928 5927 5926 5924 5922 5921 5919 5917 5916 5915 5913 5912 5910 5907 5905 5903 5901 5899 5896
5860 5862 5864 5866 5868 5870 5872 5874 5875 5878 5880 5882 5884 5886 5888 5890 5892 5894 5896 5898 5899 5901 5903 5904 5906 5907 5908 5909 5910 5911 5912 5913 5914 5914 5915 5916 5916 5917 5917 5917 5917 5918 5918 5918 5918 5918 5919 5919 5919 5920 5920 5920 5921 5921 5922 5923 5923 5924 5925 5926 5927 5928 5927 5925 5924 5924 5924 5923 5922 5920 5919 5917 5916 5914 5912 5911 5910 5908 5906 5904 5902 5899 5897 5895 5893
5857 5859 5861 5863 5865 5867 5869 5871 5873 5875 5877 5879 5881 5883 5885 5887 5889 5891 5893 5895 5897 5899 5900 5901 5903 5904 5906 5907 5907 5908 5909 5910 5911 5912 5912 5913 5913 5914 5914 5914 5914 5915 5915 5915 5915 5915 5916 5916 5916 5916 5916 5917 5917 5917 5918 5918 5919 5920 5920 5921 5922 5923 5923 5922 5921 5921 5920 5919 5917 5916 5915 5913 5912 5911 5909 5907 5906 5904 5902 5900 5898 5896 5893 5891 5889
5854 5856 5858 5860 5862 5864 5866 5868 5870 5872 5875 5877 5879 5881 5883 5885 5887 5889 5891 5892 5894 5896 5897 5898 5900 5901 5902 5903 5904 5905 5907 5908 5908 5909 5909 5910 5910 5910 5911 5911 5911 5911 5912 5912 5912 5912 5912 5912 5913 5913 5913 5913 5913 5913 5914 5914 5915 5915 5915 5916 5916 5917 5917 5917 5917 5916 5915 5914 5913 5911 5910 5909 5908 5906 5904 5903 5901 5899 5897 5895 5893 5891 5889 5886 5884
5850 5852 5854 5856 5858 5861 5863 5865 5867 5869 5871 5874 5875 5878 5880 5882 5884 5886 5888 5889 5891 5892 5894 5895 5896 5898 5899 5900 5901 5903 5904 5904 5905 5905 5906 5906 5907 5907 5907 5907 5907 5908 5908 5908 5908 5909 5909 5909 5909 5909 5910 5909 5909 5910 5910 5910 5910 5910 5910 5911 5911 5912 5912 5912 5911 5911 5910 5909 5908 5907 5906 5904 5903 5901 5899 5897 5895 5893 5891 5890 5888 5886 5884 5881 5879
5847 5848 5850 5852 5855 5857 5859 5861 5863 5866 5868 5870 5872 5874 5876 5878 5880 5882 5884 5886 5887 5889 5890 5891 5893 5894 5895 5897 5898 5899 5900 5901 5901 5902 5902 5903 5903 5903 5904 5903 5903 5904 5904 5904 5904 5905 5905 5905 5905 5906 5906 5905 5905 5906 5906 5906 5906 5906 5906 5906 5907 5907 5907 5906 5906 5906 5905 5904 5903 5902 5901 5899 5898 5896 5894 5892 5890 5888 5887 5885 5883 5881 5879 5876 5873
5843 5845 5848 5850 5852 5853 5855 5857 5860 5862 5864 5866 5868 5870 5872 5874 5876 5878 5880 5882 5883 5885 5886 5888 5889 5890 5891 5893 5894 5895 5896 5897 5897 5898 5898 5899 5899 5899 5899 5899 5899 5899 5899 5899 5900 5901 5901 5901 5901 5902 5901 5901 5901 5901 5902 5902 5902 5901 5901 5902 5902 5902 5902 5901 5901 5900 5899 5898 5897 5896 5895 5894 5892 5890 5889 5887 5885 5884 5882 5880 5878 5876 5873 5870 5867
5840 5842 5844 5847 5848 5850 5852 5854 5856 5858 5860 5862 5864 5866 5867 5869 5871 5874 5876 5878 5879 5880 5882 5883 5884 5886 5887 5888 5889 5890 5891 5892 5892 5893 5894 5894 5894 5894 5895 5895 5895 5895 5894 5895 5895 5896 5896 5896 5897 5897 5897 5897 5897 5897 5898 5898 5897 5897 5897 5897 5897 5896 5896 5896 5895 5894 5893 5893 5892 5891 5889 5888 5886 5885 5883 5881 5880 5878 5877 5875 5872 5870 5867 5864 5861
5835 5838 5840 5842 5844 5845 5847 5850 5852 5854 5856 5858 5860 5861 5863 5865 5867 5869 5871 5873 5874 5876 5877 5878 5880 5881 5882 5883 5884 5885 5886 5886 5887 5888 5888 5889 5889 5889 5889 5890 5890 5890 5890 5890 5890 5891 5891 5891 5892 5892 5892 5892 5892 5892 5892 5893 5892 5892 5891 5891 5891 5891 5890 5890 5889 5888 5888 5887 5886 5885 5884 5882 5881 5879 5878 5876 5874 5873 5871 5868 5866 5864 5861 5858 5855
5831 5833 5836 5838 5840 5841 5843 5845 5847 5850 5852 5854 5856 5858 5859 5860 5862 5864 5866 5867 5869 5871 5872 5873 5874 5876 5877 5878 5879 5880 5880 5881 5881 5882 5883 5883 5883 5884 5884 5884 5884 5885 5885 5885 5885 5885 5885 5886 5886 5886 5886 5887 5887 5886 5887 5887 5886 5886 5886 5886 5886 5885 5884 5884 5883 5883 5882 5881 5880 5879 5878 5876 5875 5873 5871 5870 5868 5866 5864 5862 5860 5857 5855 5852 5849
5827 5829 5832 5834 5836 5838 5839 5841 5843 5846 5848 5850 5852 5854 5855 5856 5858 5859 5861 5862 5864 5865 5867 5868 5869 5870 5871 5872 5873 5874 5875 5875 5876 5876 5877 5877 5877 5878 5878 5878 5879 5879 5879 5879 5879 5879 5879 5880 5880 5880 5880 5880 5880 5880 5881 5881 5881 5880 5880 5880 5880 5879 5878 5878 5877 5876 5876 5874 5873 5872 5871 5869 5868 5866 5864 5863 5861 5859 5858 5856 5853 5851 5848 5845 5842
5823 5825 5828 5830 5832 5834 5836 5838 5840 5842 5844 5845 5847 5849 5850 5852 5853 5855 5856 5858 5859 5860 5862 5863 5864 5864 5865 5866 5867 5868 5869 5869 5870 5870 5871 5871 5871 5871 5872 5872 5872 5873 5872 5872 5873 5873 5873 5874 5874 5874 5874 5874 5874 5875 5876 5876 5876 5875 5875 5874 5873 5873 5872 5872 5871 5870 5869 5868 5867 5866 5864 5862 5861 5859 5858 5856 5855 5853 5851 5849 5847 5844 5842 5839 5836
5819 5821 5824 5827 5829 5831 5833 5835 5837 5838 5840 5841 5842 5844 5845 5847 5849 5850 5851 5853 5854 5855 5857 5858 5858 5859 5860 5861 5861 5862 5863 5863 5864 5864 5865 5865 5865 5865 5866 5866 5866 5866 5866 5867 5867 5868 5868 5869 5869 5869 5869 5869 5869 5870 5871 5870 5870 5870 5869 5868 5867 5867 5866 5866 5865 5863 5862 5861 5860 5859 5857 5856 5854 5853 5851 5850 5848 5846 5844 5842 5840 5838 5835 5832 5830
5817 5819 5821 5824 5826 5827 5828 5830 5832 5834 5835 5837 5838 5839 5841 5842 5844 5845 5846 5847 5849 5850 5851 5852 5853 5854 5855 5856 5856 5856 5857 5857 5858 5858 5859 5860 5860 5860 5860 5860 5860 5860 5861 5861 5862 5862 5863 5865 5865 5864 5864 5864 5863 5863 5863 5862 5862 5862 5861 5861 5861 5861 5860 5859 5858 5857 5856 5855 5854 5852 5851 5849 5848 5846 5845 5843 5841 5840 5838 5836 5833 5831 5829 5826 5824
5813 5815 5817 5819 5821 5823 5824 5826 5828 5829 5830 5832 5833 5835 5836 5838 5839 5840 5841 5842 5843 5844 5845 5846 5847 5848 5850 5850 5850 5851 5851 5852 5853 5854 5854 5855 5855 5854 5854 5855 5855 5855 5855 5856 5857 5858 5858 5859 5859 5859 5859 5858 5858 5857 5857 5857 5856 5856 5855 5855 5855 5855 5854 5853 5852 5851 5850 5849 5847 5846 5844 5843 5841 5840 5838 5836 5835 5833 5831 5829 5827 5824 5822 5820 5817
5808 5810 5812 5814 5816 5818 5820 5822 5823 5825 5826 5827 5829 5830 5831 5833 5834 5835 5836 5837 5838 5839 5840 5841 5842 5843 5844 5845 5845 5846 5847 5847 5848 5848 5849 5849 5849 5849 5849 5850 5851 5851 5851 5852 5853 5854 5853 5853 5853 5852 5852 5852 5852 5852 5852 5852 5852 5851 5851 5850 5849 5849 5848 5847 5846 5844 5843 5842 5841 5839 5838 5836 5834 5833 5831 5830 5828 5827 5825 5823 5821 5818 5816 5813 5811
5802 5804 5806 5808 5810 5812 5814 5816 5818 5820 5821 5823 5824 5825 5827 5828 5829 5830 5831 5832 5833 5834 5835 5836 5837 5838 5839 5839 5840 5841 5842 5842 5843 5843 5843 5843 5844 5844 5844 5845 5846 5847 5847 5847 5848 5849 5849 5849 5848 5847 5847 5847 5846 5846 5847 5847 5847 5846 5845 5844 5843 5842 5841 5840 5839 5838 5836 5835 5833 5832 5830 5829 5827 5826 5825 5823 5822 5820 5818 5816 5814 5812 5810 5807 5804
5795 5797 5799 5802 5804 5806 5808 5810 5813 5814 5816 5817 5819 5820 5821 5822 5823 5824 5825 5827 5828 5829 5829 5831 5832 5833 5833 5834 5835 5836 5836 5837 5837 5837 5837 5838 5839 5839 5839 5839 5840 5841 5841 5841 5841 5841 5842 5842 5842 5842 5841 5841 5841 5841 5841 5840 5840 5839 5838 5837 5836 5835 5834 5833 5832 5830 5829 5827 5826 5824 5823 5822 5821 5819 5818 5817 5815 5813 5811 5809 5807 5805 5803 5800 5798
5789 5791 5793 5795 5798 5800 5802 5805 5807 5809 5810 5812 5813 5814 5816 5817 5818 5819 5820 5821 5822 5823 5824 5825 5826 5827 5828 5829 5829 5830 5831 5830 5830 5831 5833 5834 5833 5833 5833 5833 5834 5835 5835 5834 5834 5834 5834 5834 5834 5834 5834 5834 5834 5834 5833 5832 5831 5830 5830 5829 5828 5827 5826 5825 5824 5822 5821 5820 5818 5817 5816 5815 5814 5812 5811 5809 5808 5806 5804 5802 5800 5797 5795 5793 5791
5782 5784 5786 5789 5791 5794 5796 5798 5801 5802 5804 5806 5807 5809 5810 5811 5812 5814 5815 5816 5817 5817 5818 5820 5821 5822 5822 5823 5824 5825 5825 5824 5823 5825 5827 5828 5827 5827 5827 5827 5828 5829 5828 5828 5828 5828 5827 5826 5826 5826 5826 5826 5825 5825 5824 5823 5822 5822 5821 5820 5820 5819 5818 5817 5816 5815 5814 5812 5811 5810 5809 5808 5807 5805 5804 5802 5800 5798 5796 5794 5792 5790 5788 5786 5783
5775 5777 5780 5782 5784 5787 5789 5791 5794 5796 5798 5800 5801 5803 5804 5805 5807 5808 5809 5810 5811 5812 5813 5814 5815 5816 5817 5817 5818 5818 5819 5818 5816 5817 5819 5820 5821 5821 5821 5821 5821 5822 5821 5821 5821 5820 5820 5820 5819 5819 5818 5818 5817 5816 5816 5815 5814 5813 5813 5812 5811 5811 5810 5809 5808 5807 5806 5805 5804 5803 5802 5801 5799 5798 5796 5794 5793 5791 5789 5787 5785 5783 5781 5778 5776
5768 5771 5773 5776 5778 5780 5782 5784 5787 5789 5791 5793 5795 5796 5798 5799 5801 5802 5803 5804 5805 5806 5807 5808 5809 5809 5810 5811 5812 5812 5812 5812 5811 5810 5811 5812 5813 5813 5813 5813 5814 5814 5814 5814 5813 5812 5812 5812 5811 5811 5810 5809 5808 5808 5807 5806 5806 5805 5805 5804 5804 5803 5802 5802 5801 5800 5799 5798 5797 5796 5795 5793 5792 5790 5789 5787 5785 5783 5781 5779 5777 5775 5773 5771 5768
5760 5764 5767 5769 5771 5774 5776 5778 5780 5782 5785 5786 5788 5790 5792 5793 5795 5796 5797 5798 5799 5800 5801 5801 5802 5803 5803 5804 5805 5806 5806 5806 5805 5805 5804 5804 5805 5805 5805 5805 5806 5806 5806 5805 5805 5804 5804 5803 5803 5802 5802 5801 5800 5798 5798 5797 5797 5797 5797 5796 5796 5795 5794 5794 5793 5792 5791 5791 5789 5788 5787 5786 5784 5782 5781 5779 5777 5775 5773 5771 5769 5767 5765 5762 5760
5753 5756 5759 5762 5765 5767 5770 5772 5774 5776 5778 5780 5782 5784 5786 5787 5789 5790 5791 5792 5793 5794 5794 5795 5795 5796 5797 5797 5798 5799 5800 5800 5800 5799 5798 5798 5797 5797 5797 5797 5797 5797 5797 5797 5796 5796 5795 5795 5794 5793 5793 5792 5791 5790 5789 5788 5788 5788 5788 5788 5787 5787 5786 5786 5785 5785 5785 5784 5782 5781 5780 5778 5776 5774 5772 5770 5768 5766 5764 5762 5760 5758 5756 5754 5752
5746 5749 5753 5756 5758 5761 5763 5765 5767 5769 5772 5774 5776 5777 5779 5781 5782 5783 5785 5786 5787 5788 5788 5789 5789 5789 5790 5791 5791 5792 5793 5793 5793 5792 5792 5791 5790 5789 5788 5787 5786 5787 5787 5787 5787 5787 5786 5786 5786 5784 5783 5783 5782 5781 5780 5779 5779 5779 5779 5779 5779 5778 5779 5779 5779 5779 5778 5777 5775 5774 5772 5770 5768 5766 5763 5762 5760 5758 5756 5754 5752 5750 5748 5746 5744
5739 5742 5746 5748 5751 5753 5755 5758 5760 5762 5765 5767 5769 5771 5772 5774 5775 5777 5778 5779 5780 5781 5782 5782 5783 5783 5783 5784 5784 5785 5786 5786 5786 5785 5785 5784 5783 5782 5780 5779 5778 5779 5778 5778 5777 5776 5775 5775 5775 5775 5774 5774 5774 5774 5773 5773 5772 5772 5771 5771 5770 5771 5771 5772 5772 5771 5770 5769 5768 5766 5764 5762 5759 5757 5755 5753 5751 5749 5747 5746 5744 5741 5739 5737 5735
5731 5734 5737 5740 5742 5745 5747 5750 5752 5755 5757 5759 5761 5763 5765 5766 5767 5769 5770 5771 5772 5774 5774 5775 5776 5776 5776 5777 5777 5778 5778 5779 5778 5778 5778 5777 5776 5775 5773 5772 5772 5772 5771 5770 5769 5766 5765 5765 5767 5767 5767 5767 5767 5767 5767 5767 5766 5765 5765 5764 5764 5764 5765 5764 5764 5763 5761 5760 5758 5756 5754 5752 5750 5749 5747 5745 5742 5740 5739 5737 5735 5732 5730 5728 5726